GW6170 Weather Reports


Display with metric or nautical units.
time (UTC)temp
F
wind
direction
speed
MPH
gust
MPH
rain 1hr
in
rain 24hr
in
rain mn
in
humidity
%
barometer
mb
20260503054945 44 104 4.0 5.0 0.00 0.00 0.00 85 1019.2
20260503054441 43 120 4.0 5.0 0.00 0.00 0.00 85 1018.8
20260503053939 43 95 4.0 5.0 0.00 0.00 0.00 87 1019.2
20260503053437 43 132 4.0 5.0 0.00 0.00 0.00 87 1018.9
20260503052933 44 109 5.0 6.0 0.00 0.00 0.00 84 1018.9
20260503052431 44 129 4.0 5.0 0.00 0.00 0.00 82 1019.0
20260503051927 45 103 4.0 5.0 0.00 0.00 0.00 85 1019.2
20260503051423 45 97 3.0 3.0 0.00 0.00 0.00 83 1018.7
20260503050920 46 93 3.0 3.0 0.00 0.00 0.00 80 1019.0
20260503050416 45 91 3.0 3.0 0.00 0.00 0.00 82 1018.9
20260503045914 46 86 3.0 3.0 0.00 0.00 0.00 79 1019.2
20260503045406 49 106 3.0 3.0 0.00 0.00 0.00 73 1018.8
20260503044903 50 61 3.0 3.0 0.00 0.00 0.00 71 1019.0
20260503044359 51 72 1.0 1.0 0.00 0.00 0.00 69 1019.0
20260503043856 52 79 2.0 2.0 0.00 0.00 0.00 66 1018.7
20260503043353 51 85 1.0 1.0 0.00 0.00 0.00 64 1018.9
20260503042849 53 24 1.0 2.0 0.00 0.00 0.00 64 1018.8
20260503042346 53 27 1.0 2.0 0.00 0.00 0.00 64 1018.7
20260503041842 55 197 3.0 3.0 0.00 0.00 0.00 57 1018.8
20260503041340 56 180 2.0 2.0 0.00 0.00 0.00 57 1018.6
20260503040837 54 141 0.0 1.0 0.00 0.00 0.00 58 1018.5
20260503040335 54 38 2.0 2.0 0.00 0.00 0.00 66 1018.6
20260503035831 55 169 2.0 2.0 0.00 0.00 0.00 57 1018.7
20260503035328 56 164 2.0 2.0 0.00 0.00 0.00 57 1018.5
20260503034825 53 115 0.0 0.0 0.00 0.00 0.00 62 1018.4
20260503034322 55 25 3.0 3.0 0.00 0.00 0.00 62 1018.4
20260503033820 55 143 2.0 2.0 0.00 0.00 0.00 59 1018.3
20260503033317 54 189 1.0 2.0 0.00 0.00 0.00 62 1018.4
20260503032815 55 152 0.0 1.0 0.00 0.00 0.00 63 1018.0
20260503032314 57 152 1.0 1.0 0.00 0.00 0.00 59 1018.1
20260503031810 58 152 2.0 2.0 0.00 0.00 0.00 55 1017.8
20260503031308 57 156 3.0 3.0 0.00 0.00 0.00 57 1017.5
20260503030804 58 155 4.0 5.0 0.00 0.00 0.00 57 1017.8
20260503030301 58 163 3.0 3.0 0.00 0.00 0.00 56 1018.0
20260503025757 59 180 3.0 3.0 0.00 0.00 0.00 56 1017.8
20260503025255 60 175 3.0 3.0 0.00 0.00 0.00 52 1017.8
20260503024752 58 159 3.0 5.0 0.00 0.00 0.00 55 1018.0
20260503024249 60 167 1.0 2.0 0.00 0.00 0.00 53 1017.7
20260503023746 61 157 2.0 2.0 0.00 0.00 0.00 46 1017.9
20260503023242 61 181 2.0 2.0 0.00 0.00 0.00 48 1018.0
20260503022739 62 187 3.0 3.0 0.00 0.00 0.00 55 1018.1
20260503022239 61 33 2.0 2.0 0.00 0.00 0.00 48 1018.1
20260503021736 62 86 2.0 3.0 0.00 0.00 0.00 53 1018.4
20260503021232 65 140 2.0 2.0 0.00 0.00 0.00 46 1018.3
20260503020731 64 346 0.0 0.0 0.00 0.00 0.00 43 1018.1
20260503020228 64 336 2.0 2.0 0.00 0.00 0.00 43 1018.0
20260503015724 65 294 5.0 6.0 0.00 0.00 0.00 44 1018.1
20260503015221 65 299 2.0 2.0 0.00 0.00 0.00 43 1018.0
20260503014717 64 272 4.0 5.0 0.00 0.00 0.00 44 1018.0
20260503014215 64 182 3.0 3.0 0.00 0.00 0.00 51 1018.1
20260503013712 64 266 5.0 6.0 0.00 0.00 0.00 46 1017.8
20260503013210 65 213 1.0 2.0 0.00 0.00 0.00 52 1018.1
20260503012707 65 88 0.0 1.0 0.00 0.00 0.00 49 1017.9
20260503012204 66 336 4.0 6.0 0.00 0.00 0.00 47 1018.0
20260503011700 66 4 3.0 3.0 0.00 0.00 0.00 46 1017.9
20260503011157 66 223 2.0 2.0 0.00 0.00 0.00 43 1018.0
20260503010653 68 295 3.0 3.0 0.00 0.00 0.00 47 1017.9
20260503010151 68 0 5.0 5.0 0.00 0.00 0.00 39 1017.9
20260503005648 69 77 2.0 2.0 0.00 0.00 0.00 39 1017.7
20260503005145 70 89 4.0 7.0 0.00 0.00 0.00 42 1017.8
20260503004641 68 272 3.0 5.0 0.00 0.00 0.00 40 1017.7
20260503004140 69 280 6.0 7.0 0.00 0.00 0.00 41 1017.5
20260503003636 69 246 6.0 8.0 0.00 0.00 0.00 39 1017.6
20260503003133 70 276 8.0 9.0 0.00 0.00 0.00 40 1017.8
20260503002630 71 324 6.0 8.0 0.00 0.00 0.00 35 1017.5
20260503002127 72 291 8.0 8.0 0.00 0.00 0.00 34 1017.6
20260503001623 71 268 3.0 3.0 0.00 0.00 0.00 37 1017.6
20260503001120 71 246 5.0 5.0 0.00 0.00 0.00 41 1017.1
20260503000618 71 222 6.0 7.0 0.00 0.00 0.00 36 1017.3
20260503000115 71 262 3.0 3.0 0.00 0.00 0.00 40 1017.1
20260502235611 71 287 8.0 8.0 0.00 0.00 0.00 35 1017.5
20260502235109 71 222 12.0 14.0 0.00 0.00 0.00 38 1017.3
20260502234605 71 219 6.0 7.0 0.00 0.00 0.00 37 1017.2
20260502234103 71 275 6.0 7.0 0.00 0.00 0.00 37 1017.5
20260502233603 71 278 9.0 10.0 0.00 0.00 0.00 36 1017.6
20260502233100 71 296 8.0 9.0 0.00 0.00 0.00 40 1017.6
20260502232556 70 287 6.0 8.0 0.00 0.00 0.00 39 1017.6
20260502232054 71 292 7.0 8.0 0.00 0.00 0.00 40 1017.5
20260502231550 70 261 7.0 8.0 0.00 0.00 0.00 40 1017.6
20260502231049 71 297 7.0 7.0 0.00 0.00 0.00 38 1017.5
20260502230547 70 281 8.0 9.0 0.00 0.00 0.00 42 1017.5
20260502230045 71 278 8.0 9.0 0.00 0.00 0.00 38 1017.6
20260502225540 71 265 6.0 8.0 0.00 0.00 0.00 41 1017.6
20260502225037 70 234 8.0 10.0 0.00 0.00 0.00 36 1017.6
20260502224533 71 228 3.0 5.0 0.00 0.00 0.00 33 1017.8
20260502224030 71 275 4.0 5.0 0.00 0.00 0.00 34 1017.8
20260502223528 72 1 1.0 1.0 0.00 0.00 0.00 30 1017.7
20260502223027 73 359 2.0 2.0 0.00 0.00 0.00 31 1017.9
20260502222523 73 346 1.0 2.0 0.00 0.00 0.00 29 1018.0
20260502222020 72 210 1.0 2.0 0.00 0.00 0.00 30 1017.8
20260502221515 72 214 3.0 3.0 0.00 0.00 0.00 32 1017.8
20260502221013 72 186 2.0 3.0 0.00 0.00 0.00 36 1017.7
20260502220508 73 285 4.0 5.0 0.00 0.00 0.00 33 1017.8
20260502220005 72 286 2.0 2.0 0.00 0.00 0.00 33 1018.0
20260502215503 72 222 2.0 2.0 0.00 0.00 0.00 31 1017.9
20260502214959 72 296 8.0 9.0 0.00 0.00 0.00 33 1018.1
20260502214456 72 274 4.0 5.0 0.00 0.00 0.00 35 1017.9
20260502213954 73 350 4.0 6.0 0.00 0.00 0.00 36 1018.0
20260502213450 73 10 4.0 5.0 0.00 0.00 0.00 34 1018.0
20260502212949 72 314 1.0 2.0 0.00 0.00 0.00 32 1018.1
20260502212447 72 224 3.0 3.0 0.00 0.00 0.00 32 1018.3
20260502211944 72 257 3.0 5.0 0.00 0.00 0.00 31 1018.1
20260502211439 72 42 3.0 5.0 0.00 0.00 0.00 35 1018.3
20260502210937 72 154 1.0 1.0 0.00 0.00 0.00 32 1018.3
20260502210434 72 260 3.0 3.0 0.00 0.00 0.00 33 1018.4
20260502205931 72 220 1.0 1.0 0.00 0.00 0.00 31 1018.4
20260502205427 71 9 1.0 2.0 0.00 0.00 0.00 34 1018.5
20260502204925 73 324 5.0 6.0 0.00 0.00 0.00 32 1018.5
20260502204421 72 305 4.0 6.0 0.00 0.00 0.00 32 1018.6
20260502203919 73 347 1.0 2.0 0.00 0.00 0.00 29 1018.5
20260502203416 72 38 2.0 3.0 0.00 0.00 0.00 31 1018.5
20260502202912 73 351 5.0 7.0 0.00 0.00 0.00 31 1018.4
20260502202409 75 268 4.0 5.0 0.00 0.00 0.00 34 1018.6
20260502201908 73 81 2.0 2.0 0.00 0.00 0.00 29 1018.7
20260502201403 73 140 1.0 2.0 0.00 0.00 0.00 30 1018.6
20260502200900 72 126 2.0 2.0 0.00 0.00 0.00 30 1018.5
20260502200355 72 146 3.0 5.0 0.00 0.00 0.00 32 1018.7
20260502195854 73 115 3.0 3.0 0.00 0.00 0.00 32 1018.6
20260502195350 73 140 4.0 5.0 0.00 0.00 0.00 33 1018.6
20260502194847 72 69 5.0 6.0 0.00 0.00 0.00 31 1018.8
20260502194344 72 264 4.0 5.0 0.00 0.00 0.00 40 1018.7
20260502193839 71 226 4.0 5.0 0.00 0.00 0.00 35 1018.7
20260502193337 71 302 5.0 6.0 0.00 0.00 0.00 35 1019.0
20260502192832 71 239 3.0 3.0 0.00 0.00 0.00 38 1019.0
20260502192330 71 30 3.0 3.0 0.00 0.00 0.00 31 1019.0
20260502191827 71 30 6.0 7.0 0.00 0.00 0.00 32 1019.0
20260502191325 71 103 1.0 1.0 0.00 0.00 0.00 30 1019.0
20260502190822 71 94 2.0 2.0 0.00 0.00 0.00 34 1019.2
20260502190319 70 79 3.0 5.0 0.00 0.00 0.00 27 1019.2
20260502185814 71 316 5.0 6.0 0.00 0.00 0.00 33 1019.3
20260502185310 69 107 0.0 1.0 0.00 0.00 0.00 40 1019.5
20260502184808 70 297 3.0 3.0 0.00 0.00 0.00 35 1019.3
20260502184303 70 344 1.0 1.0 0.00 0.00 0.00 35 1019.4
20260502183800 68 296 2.0 2.0 0.00 0.00 0.00 39 1019.3
20260502183256 68 329 3.0 3.0 0.00 0.00 0.00 40 1019.2
20260502182751 68 2 3.0 3.0 0.00 0.00 0.00 38 1019.4
20260502182247 67 289 1.0 1.0 0.00 0.00 0.00 39 1019.5
20260502181743 68 251 3.0 3.0 0.00 0.00 0.00 41 1019.5
20260502181243 68 256 1.0 1.0 0.00 0.00 0.00 40 1019.4
20260502180740 67 122 3.0 5.0 0.00 0.00 0.00 40 1019.6
20260502180237 68 294 4.0 5.0 0.00 0.00 0.00 44 1019.7
20260502170202 63 96 1.0 2.0 0.00 0.00 0.00 48 1019.6
20260502164148 60 124 0.0 0.0 0.00 0.00 0.00 50 1020.2
20260502163644 61 250 2.0 2.0 0.00 0.00 0.00 51 1019.9
20260502163141 61 22 1.0 1.0 0.00 0.00 0.00 46 1019.8
20260502162638 61 28 2.0 2.0 0.00 0.00 0.00 49 1019.9
20260502162135 61 35 1.0 2.0 0.00 0.00 0.00 48 1020.1
20260502161632 61 30 2.0 2.0 0.00 0.00 0.00 48 1019.9
20260502161129 61 7 2.0 2.0 0.00 0.00 0.00 48 1020.2
20260502160626 60 6 1.0 2.0 0.00 0.00 0.00 49 1020.1
20260502160125 60 108 1.0 1.0 0.00 0.00 0.00 50 1019.9
20260502152039 56 101 0.0 0.0 0.00 0.00 0.00 57 1020.2
20260502151536 55 100 3.0 3.0 0.00 0.00 0.00 58 1020.2
20260502151034 55 108 3.0 3.0 0.00 0.00 0.00 59 1020.3
20260502150531 55 104 2.0 2.0 0.00 0.00 0.00 59 1020.2
20260502130416 41 225 1.0 2.0 0.00 0.00 0.00 83 1019.6
20260502123358 41 110 2.0 2.0 0.00 0.00 0.00 80 1019.7
20260502122856 40 143 2.0 2.0 0.00 0.00 0.00 75 1019.6
20260502122351 38 108 2.0 2.0 0.00 0.00 0.00 86 1019.5
20260502121850 38 122 1.0 2.0 0.00 0.00 0.00 85 1019.7
20260502121347 39 91 3.0 3.0 0.00 0.00 0.00 87 1019.5
20260502120844 39 129 3.0 3.0 0.00 0.00 0.00 82 1019.9
20260502120340 38 107 3.0 3.0 0.00 0.00 0.00 88 1019.7
20260502115838 39 97 3.0 3.0 0.00 0.00 0.00 88 1019.7
20260502115335 38 95 4.0 5.0 0.00 0.00 0.00 88 1019.8
20260502114831 39 109 4.0 5.0 0.00 0.00 0.00 86 1019.6
20260502114328 43 86 4.0 5.0 0.00 0.00 0.00 78 1019.9
20260502113825 43 107 2.0 2.0 0.00 0.00 0.00 73 1019.9
20260502113323 42 153 2.0 2.0 0.00 0.00 0.00 73 1019.9
20260502112821 41 131 3.0 3.0 0.00 0.00 0.00 74 1019.8
20260502112318 42 91 1.0 1.0 0.00 0.00 0.00 72 1019.8
20260502111815 41 163 1.0 1.0 0.00 0.00 0.00 75 1019.9
20260502111313 44 164 1.0 2.0 0.00 0.00 0.00 64 1019.9
20260502110810 43 115 2.0 2.0 0.00 0.00 0.00 73 1019.8
20260502110308 42 137 1.0 1.0 0.00 0.00 0.00 67 1019.9
20260502105806 39 124 2.0 2.0 0.00 0.00 0.00 81 1020.3
20260502105302 39 87 2.0 2.0 0.00 0.00 0.00 86 1020.2
20260502104800 40 132 1.0 1.0 0.00 0.00 0.00 85 1020.1
20260502104257 41 95 3.0 3.0 0.00 0.00 0.00 83 1020.1
20260502103754 41 93 1.0 1.0 0.00 0.00 0.00 80 1019.9
20260502103251 39 147 1.0 1.0 0.00 0.00 0.00 84 1020.1
20260502102748 40 97 3.0 3.0 0.00 0.00 0.00 83 1020.2
20260502102245 42 78 2.0 2.0 0.00 0.00 0.00 78 1020.1
20260502101743 42 102 4.0 5.0 0.00 0.00 0.00 74 1019.9
20260502101241 41 153 1.0 2.0 0.00 0.00 0.00 75 1019.9
20260502100739 39 154 0.0 1.0 0.00 0.00 0.00 82 1020.1
20260502100237 39 148 0.0 1.0 0.00 0.00 0.00 82 1019.8
20260502091211 40 156 1.0 1.0 0.00 0.00 0.00 82 1020.1
20260502090709 41 219 2.0 2.0 0.00 0.00 0.00 79 1020.1
20260502090205 40 86 0.0 1.0 0.00 0.00 0.00 76 1020.1
20260502071107 47 143 0.0 1.0 0.00 0.00 0.00 62 1020.2
20260502070605 48 75 0.0 1.0 0.00 0.00 0.00 61 1020.1
20260502065600 50 209 1.0 1.0 0.00 0.00 0.00 54 1019.9
20260502065058 48 193 2.0 2.0 0.00 0.00 0.00 58 1020.2
20260502064556 49 156 2.0 2.0 0.00 0.00 0.00 56 1020.2
20260502064053 48 171 2.0 3.0 0.00 0.00 0.00 58 1020.1
20260502063551 51 162 1.0 1.0 0.00 0.00 0.00 54 1019.9
20260502063048 52 159 1.0 1.0 0.00 0.00 0.00 50 1019.9
20260502062545 51 134 1.0 2.0 0.00 0.00 0.00 50 1019.9
20260502062043 53 156 2.0 2.0 0.00 0.00 0.00 48 1019.8
20260502061541 53 168 3.0 3.0 0.00 0.00 0.00 47 1020.1
20260502061038 53 178 3.0 5.0 0.00 0.00 0.00 48 1019.7
20260502060533 53 141 3.0 3.0 0.00 0.00 0.00 49 1019.9